www.pogodaiklimat.ru

Погода и климат >> Архив погоды >> Украина >> Дрогобыч


ПОГОДА в Дрогобыче

  • Прогноз погоды в Дрогобыче
  • Монитор погоды в Дрогобыче

АРХИВ ПОГОДЫ в Дрогобыче

Время (UTC), дата Ветер
(напр.,м/с)
 
Видим.   Явления Облачность Т
(С)
Тd
(С)
f
(%)
Тe
(С)
Тes
(С)
Комфортность P
(гПа)
Po
(гПа)
Тmin
(С)
Tmax
(С)
R
(мм)
R24
(мм)
S
(см)
00 11.06 С 3 10 км ясно +18.6 +16.2 86 +20 +20 1016.0 983.8
03 11.06 штиль 0 20 км ясно +16.2 +14.7 91 +16 +16 1017.0 984.5
06 11.06 штиль 0 20 км ясно +23.5 +16.5 65 +27 +36 душно 1017.0 985.3 +15.8
09 11.06 СВ 3 20 км 1/1 1000 м
[Cu hum]
+27.6 +15.3 47 +30 +44 жарко 1016.0 984.7
12 11.06 ЮВ 5 20 км 4/4 1000 м
[Cu hum]
+29.2 +14.2 40 +31 +37 жарко 1014.0 983.0
15 11.06 В 5 20 км 6/6 600 м
[Cb cap]
+28.3 +12.6 38 +30 +31 жарко 1014.0 982.8
18 11.06 В 3 20 км 8/8 600 м
[Cb cap]
+24.6 +15.5 57 +28 +28 душно 1016.0 984.4 +29.3
21 11.06 В 1 10 км 3 балла +17.2 +15.4 89 +18 +18 1016.0 983.6
00 12.06 штиль 0 10 км ясно +14.6 +14.0 96 +14 +14 1017.0 984.3
03 12.06 ЮВ 1 10 км 3 балла +13.8 +13.3 97 +14 +14 1016.0 983.2
06 12.06 штиль 0 20 км 3/0
[Ci sp]
+21.5 +17.5 78 +26 +32 душно 1016.0 984.1 +13.1
09 12.06 В 3 10 км 3 балла +27.5 +14.5 45 +30 +39 жарко 1015.0 983.8
12 12.06 СВ 5 20 км 5/5 1000 м
[Cu hum]
+30.0 +14.5 39 +32 +35 жарко 1013.0 982.1
15 12.06 В 5 20 км 8/8 600 м
[Cb cap]
+25.0 +14.1 51 +27 +27 жарко 1014.0 982.5
18 12.06 ЮВ 3 20 км 5/0
[Ci sp]
+22.4 +16.2 68 +27 +27 душно 1014.0 982.3 +30.0
21 12.06 штиль 0 10 км ясно +16.0 +14.5 91 +16 +16 1016.0 983.5
00 13.06 штиль 0 2000 м дымка ясно +13.0 +12.5 97 +12 +12 1017.0 984.1
03 13.06 штиль 0 4000 м туман поземный ясно +12.4 +11.6 95 +12 +12 1016.0 983.1
06 13.06 штиль 0 20 км ясно +21.4 +16.4 73 +25 +34 комфорт 1016.0 984.1 +11.8
09 13.06 штиль 0 20 км 3/3 1000 м
[Cu hum]
+28.2 +18.0 54 +33 +48 очень
душно
1015.0 983.9
12 13.06 штиль 0 20 км 4/4 1000 м
[Cu hum]
+30.2 +17.3 46 +34 +49 очень
душно
1015.0 984.1
15 13.06 штиль 0 20 км 3/3 1000 м
[Cu hum]
+30.0 +14.5 39 +32 +38 жарко 1014.0 983.0
18 13.06 ЮВ 1 20 км 4/4 1000 м
[Cu hum]
+25.4 +15.7 55 +29 +29 душно 1014.0 982.6 +31.4
21 13.06 штиль 0 10 км ясно +21.6 +16.8 74 +26 +26 душно 1016.0 984.1
00 14.06 штиль 0 20 км ясно +17.8 +16.1 90 +18 +18 1017.0 984.7
03 14.06 штиль 0 20 км ясно +14.0 +12.6 91 +14 +14 1017.0 984.2
06 14.06 штиль 0 20 км ясно +22.4 +18.4 78 +28 +37 душно 1017.0 985.2 +14.0
09 14.06 СВ 1 20 км 3/1 1000 м
[Cu med, cong Ci fib]
+29.2 +18.3 52 +34 +47 очень
душно
1017.0 985.9
12 14.06 штиль 0 20 км 5/3 1000 м
[Cu med, cong Ci sp]
+30.8 +16.4 42 +34 +43 очень
душно
1017.0 986.0
15 14.06 штиль 0 20 км 5/3 1000 м
[Cu med, cong Ci sp]
+30.5 +18.6 49 +35 +39 очень
душно
1016.0 985.1
18 14.06 Ю 2 20 км 9/3 600 м
[Cb cap Ac trans]
+24.8 +17.0 62 +29 +29 душно 1018.0 986.4 +31.3
21 14.06 штиль 0 10 км 10/0
[Ac As]
+21.7 +18.5 82 +26 +26 душно 1019.0 987.1
00 15.06 штиль 0 10 км 10/0
[Cs]
+18.0 +15.1 83 +18 +18 1018.0 985.7
03 15.06 штиль 0 10 км туман поземный 9/0
[Ci sp]
+15.2 +14.1 93 +15 +15 1018.0 985.3
06 15.06 штиль 0 20 км ясно +23.9 +13.1 51 +26 +35 жарко 1017.0 985.3 +14.8
09 15.06 В 2 20 км ясно +29.4 +14.0 39 +31 +48 жарко 1016.0 984.9
12 15.06 В 3 20 км ясно +30.5 +13.3 35 +32 +45 жарко 1014.0 983.1
15 15.06 В 3 20 км 3/3 1000 м
[Cu hum]
+30.3 +14.0 37 +32 +36 жарко 1013.0 982.1
18 15.06 В 1 20 км ясно +27.0 +19.1 62 +32 +32 очень
душно
1013.0 981.8 +30.6
21 15.06 штиль 0 10 км ясно +19.9 +17.7 87 +22 +22 комфорт 1013.0 981.1
00 16.06 штиль 0 10 км ясно +17.3 +16.7 96 +17 +17 1013.0 980.8
03 16.06 Ю 1 20 км 3/0
[Ci fib]
+16.3 +15.7 96 +17 +17 1014.0 981.6
06 16.06 С 3 20 км 3/0
[Ci fib]
+24.6 +13.5 50 +27 +31 жарко 1013.0 981.5 +16.1
09 16.06 СЗ 3 10 км 3 балла +30.0 +12.8 35 +31 +41 жарко 1012.0 981.1
12 16.06 С 4 20 км ясно +30.3 +13.1 35 +32 +42 жарко 1012.0 981.1
15 16.06 СЗ 4 10 км 10 баллов +27.4 +15.4 48 +30 +30 жарко 1012.0 980.8
18 16.06 СЗ 2 20 км {гроза} 10/4 600 м
[Cb cap Ac As]
+24.4 +14.5 54 +27 +27 жарко 1014.0 982.5 +30.6
21 16.06 СЗ 5 10 км 10 баллов +19.6 +14.4 72 +21 +21 комфорт 1017.0 984.9
00 17.06 З 3 10 км {гроза, ливн. осадки} 9/0
[Ac trans]
+17.2 +15.5 90 +17 +17 1017.0 984.6 3
03 17.06 штиль 0 10 км 10 баллов +15.0 +12.9 87 +15 +15 1018.0 985.3
06 17.06 СЗ 4 10 км {гроза, ливн. осадки} 9/5 600 м
[Cb cap Ac trans]
+19.0 +14.9 77 +20 +20 1019.0 986.7 +14.8 5
09 17.06 З 3 10 км 10 баллов +21.4 +16.1 72 +25 +25 комфорт 1019.0 987.0
12 17.06 ЮЗ 3 10 км 10 баллов +24.8 +14.8 54 +28 +28 жарко 1019.0 987.3
15 17.06 З 4 10 км 10 баллов +26.8 +16.4 53 +30 +30 душно 1018.0 986.6
18 17.06 штиль 0 10 км 10 баллов +19.8 +15.0 74 +22 +22 комфорт 1019.0 986.8 +26.8
21 17.06 штиль 0 10 км 10 баллов +18.2 +14.9 81 +18 +18 1020.0 987.6

 

Местоположение метеостанции Дрогобыч (Львовская область, Украина): широта 49.35 долгота 23.52 высота над уровнем моря 276 м.

В архиве по умолчанию представлена погода в Дрогобыче за последнюю неделю. Архивные данные за месяц целиком и за предыдущие месяцы, начиная с января 2011 года, Вы можете получить, выбрав интересующий диапазон дат из раскрывающегося списка и нажав кнопку "Ввод!".


*Определитесь, кто Вы:
робот инопланетянин человек

Внимание! Время в таблицах - всемирное. Для получения местного времени необходимо прибавить поправку, которая равна 2 ч.

Смотрите также архив погоды в соседних городах и на ближайших метеорологических станциях:

Погода в Стрые (Львовская область, Украина) (23 км)
Погода в Славском (Львовская область, Украина) (38 км)
Погода в Турке (Львовская область, Украина) (44 км)
Погода в Долине (Ивано-Франковская область, Украина) (55 км)
Погода в Мостиске (Львовская область, Украина) (57 км)
Погода в Львове (Львовская область, Украина) (61 км)
Погода в Яворове (Львовская область, Украина) (65 км)
Погода в Нижнем Студеном (Закарпатская область, Украина) (73 км)
Погода в Пшемысле (Польша) (75 км)
Погода в Плае (Черновицкая область, Украина) (79 км)

Пояснения к столбцам:

Ветер - указаны скорость ветра в м/с - средняя за 10 мин, порывы в срок и между сроками (в фигурных скобках) и направление, откуда дует ветер: С - северный, СВ - северо-восточный, В - восточный, ЮВ - юго-восточный, Ю - южный, ЮЗ - юго-западный, З - западный, СЗ - северо-западный.
Видимость - горизонтальная дальность видимости в метрах или километрах. При видимости от 1 до 10 км при отсутствии осадков обычно наблюдается дымка, при ухудшении видимости до 1 км и менее - туман. В сухую погоду видимость может ухудшаться дымом, пылью или мглою.
Явления - указаны атмосферные явления, наблюдавшиеся в срок или в последний час перед сроком; фигурными скобками обозначены явления, наблюдавшиеся между сроками (за 1-3 часа до срока); квадратными скобками обозначены град или гололедные отложения с указанием их диаметра в мм.
Облачность - указаны через наклонную черту общая и нижняя облачность в баллах и высота нижней границы облаков в метрах; квадратными скобками обозначены формы облаков: Ci - перистые, Cs - перисто-слоистые, Cc - перисто-кучевые, Ac - высококучевые, As - высокослоистые, Sc - слоисто-кучевые, Ns - слоисто-дождевые, Cu - кучевые, Cb - кучево-дождевые. Подробнее классификацию облаков см. в Атласе облаков (PDF).
T - Температура воздуха - температура, измеренная на высоте 2 м над землей.
Td - Температура точки росы - температура, при понижении до которой содержащийся в воздухе водяной пар достигнет насыщения.
f - Относительная влажность воздуха - влажноcть воздуха, измеренная на высоте 2 м над землей.
Te - Эффективная температура - температура, которую ощущает одетый по сезону человек в тени. Характеристика душности погоды. При расчете учитывается влияние влажности воздуха и скорости ветра на теплоощущения человека.
Tes - Эффективная температура на солнце - температура, которую ощущает человек, с поправкой на солнечный нагрев. Характеристика знойности погоды. Зависит от высоты солнца над горизонтом, облачности и скорости ветра. Ночью, в пасмурную погоду, а также при ветре 12 м/с и более поправка равна нулю.
P - Атмосферное давление - приведенное к уровню моря атмосферное давление.
Po - Атмосферное давление - измеренное на уровне метеостанции атмосферное давление.
Tmin - Минимальная температура - минимум температуры воздуха на высоте 2 м над землей.
Tmax - Максимальная температура - максимум температуры воздуха на высоте 2 м над землей.
R - Количество осадков - Количество выпавших осадков за период времени, мм. При наведении курсора мыши на число - период времени, за который выпало указанное количество осадков.
R24 - Количество осадков - Количество выпавших осадков за 24 часа, мм.
S - Снежный покров - Высота снежного покрова, см. При наведении курсора мыши на число - состояние снежного покрова и степень покрытия местности в баллах.